sat.trackr.live / text

‹ back to catalog

STARLINK-37038

NORAD 68226 · 2026-053V

PAYLOAD ACTIVE UNKNOWN

§ Identity

Operator
Country
US
Launch date
2026-03-17
Launch site
AFWTR
Launch vehicle
Mass (kg)
RCS (m²)

Purposes: comms

External: N2YO · Heavens-Above · Gunter

§ Orbital elements

Epoch: 2026-09-19T21:27:26.016768Z

Period
93.91 min
Inclination
97.2858°
Eccentricity
0.0001794
Mean motion
15.33448189 rev/d
Perigee alt
464.3 km
Apogee alt
466.8 km
Semi-major
6,843.7 km
B*
6.0650e-4
RAAN
136.7284°
Arg perigee
93.3071°
Mean anomaly
266.8377°
Rev number
2,996

§ Raw data

STARLINK-370381 68226U 26053V   26262.89405112  .00019558  00000+0  60650-3 0  99952 68226  97.2858 136.7284 0001794  93.3071 266.8377 15.33448189 29961

JSON: /api/v1/satellites/68226 · /tle

For live sub-satellite position, see the globe view (requires WebGL).

§ Visibility from observer

Set your observer location to see the next 7 days of passes ≥ 10°. The values pass through the URL so the page stays shareable.

No JS? Fill the form by hand. The geolocation button needs JavaScript.